Volver al catálogo

CZ-2D DEB

ActivoSSO
NORAD 43487·DEBRIS·🇨🇳 China

Lanzado Jun 2, 2018 desde Jiuquan Satellite Launch Center

Loading…

Próximos Pases (próximas 24 horas)

TLE

ActualizadoSource: Space-Track

Época: Sep 14, 2026, 11:18 UTC

1 43487U 18048D   26257.47122477  .00002243  00000-0  23256-3 0  9995
2 43487  97.6147 261.0523 0026997 123.9168 236.4623 14.90701948447345

Sigue CZ-2D DEB en tiempo real con AllMySat

Download on the App Store